Time,TemperatureF,DewpointF,PressureIn,WindDirection,WindDirectionDegrees,WindSpeedMPH,WindSpeedGustMPH,Humidity,HourlyPrecipIn,Conditions,Clouds,dailyrainin,SoftwareType,DateUTC
2015-05-04 00:04:00,53.3,44.9,30.08,WNW,286,0.0,0.0,73,0.00,,,0.00,VWS V14.01,2015-05-04 04:04:00,
2015-05-04 00:08:00,53.2,44.4,30.08,WNW,286,0.0,0.0,72,0.00,,,0.00,VWS V14.01,2015-05-04 04:08:00,
2015-05-04 00:13:00,53.4,44.2,30.08,WNW,286,0.0,0.0,71,0.00,,,0.00,VWS V14.01,2015-05-04 04:13:00,
2015-05-04 00:18:00,53.5,44.0,30.09,WNW,286,0.0,0.0,70,0.00,,,0.00,VWS V14.01,2015-05-04 04:18:00,
2015-05-04 00:23:00,53.5,44.0,30.09,WNW,286,0.0,0.0,70,0.00,,,0.00,VWS V14.01,2015-05-04 04:23:00,
2015-05-04 00:28:00,53.4,43.9,30.09,WNW,286,0.0,0.0,70,0.00,,,0.00,VWS V14.01,2015-05-04 04:28:00,
2015-05-04 00:33:00,53.0,44.2,30.09,WNW,286,0.0,0.0,72,0.00,,,0.00,VWS V14.01,2015-05-04 04:33:00,
2015-05-04 00:38:00,52.6,44.6,30.09,WNW,286,0.0,0.0,74,0.00,,,0.00,VWS V14.01,2015-05-04 04:38:00,
2015-05-04 00:43:00,52.2,44.5,30.09,WNW,286,0.0,0.0,75,0.00,,,0.00,VWS V14.01,2015-05-04 04:43:00,
2015-05-04 00:48:00,51.7,44.4,30.09,WNW,286,0.0,0.0,76,0.00,,,0.00,VWS V14.01,2015-05-04 04:48:00,
2015-05-04 00:53:00,51.4,44.1,30.09,WNW,286,0.0,0.0,76,0.00,,,0.00,VWS V14.01,2015-05-04 04:53:00,
2015-05-04 00:58:00,51.1,44.5,30.09,WNW,286,0.0,0.0,78,0.00,,,0.00,VWS V14.01,2015-05-04 04:58:00,
2015-05-04 01:03:00,50.9,44.3,30.09,WNW,286,0.0,0.0,78,0.00,,,0.00,VWS V14.01,2015-05-04 05:03:00,
2015-05-04 01:08:00,50.5,44.2,30.10,WNW,286,0.0,1.0,79,0.00,,,0.00,VWS V14.01,2015-05-04 05:08:00,
2015-05-04 01:13:00,49.8,43.9,30.10,WNW,286,1.0,1.0,80,0.00,,,0.00,VWS V14.01,2015-05-04 05:13:00,
2015-05-04 01:18:00,49.8,44.2,30.10,WNW,286,0.0,2.0,81,0.00,,,0.00,VWS V14.01,2015-05-04 05:18:00,
2015-05-04 01:23:00,50.0,44.1,30.10,WNW,286,0.0,2.0,80,0.00,,,0.00,VWS V14.01,2015-05-04 05:23:00,
2015-05-04 01:28:00,50.3,44.0,30.10,WNW,286,0.0,2.0,79,0.00,,,0.00,VWS V14.01,2015-05-04 05:28:00,
2015-05-04 01:33:00,50.4,44.1,30.10,WNW,286,0.0,0.0,79,0.00,,,0.00,VWS V14.01,2015-05-04 05:33:00,
2015-05-04 01:38:00,49.9,43.7,30.11,WNW,286,2.0,2.0,79,0.00,,,0.00,VWS V14.01,2015-05-04 05:38:00,
2015-05-04 01:43:00,49.6,44.0,30.11,WNW,286,0.0,2.0,81,0.00,,,0.00,VWS V14.01,2015-05-04 05:43:00,
2015-05-04 01:48:00,49.9,44.0,30.11,WNW,286,0.0,2.0,80,0.00,,,0.00,VWS V14.01,2015-05-04 05:48:00,
2015-05-04 01:53:00,50.0,44.1,30.11,WNW,286,0.0,2.0,80,0.00,,,0.00,VWS V14.01,2015-05-04 05:53:00,
2015-05-04 01:58:00,49.7,43.8,30.11,WNW,286,0.0,2.0,80,0.00,,,0.00,VWS V14.01,2015-05-04 05:58:00,
2015-05-04 02:03:00,49.6,44.0,30.11,WNW,286,0.0,0.0,81,0.00,,,0.00,VWS V14.01,2015-05-04 06:03:00,
2015-05-04 02:08:00,49.7,43.8,30.11,WNW,286,0.0,1.0,80,0.00,,,0.00,VWS V14.01,2015-05-04 06:08:00,
2015-05-04 02:13:00,49.6,43.7,30.11,WNW,286,0.0,1.0,80,0.00,,,0.00,VWS V14.01,2015-05-04 06:13:00,
2015-05-04 02:18:00,49.2,43.3,30.11,WNW,286,0.0,2.0,80,0.00,,,0.00,VWS V14.01,2015-05-04 06:18:00,
2015-05-04 02:23:00,49.1,43.5,30.11,WNW,286,0.0,2.0,81,0.00,,,0.00,VWS V14.01,2015-05-04 06:23:00,
2015-05-04 02:28:00,49.1,43.5,30.11,WNW,286,1.0,2.0,81,0.00,,,0.00,VWS V14.01,2015-05-04 06:28:00,
2015-05-04 02:33:00,49.0,43.4,30.11,WNW,286,0.0,1.0,81,0.00,,,0.00,VWS V14.01,2015-05-04 06:33:00,
2015-05-04 02:38:00,48.9,43.3,30.11,WNW,286,0.0,1.0,81,0.00,,,0.00,VWS V14.01,2015-05-04 06:38:00,
2015-05-04 02:43:00,48.8,43.2,30.11,WNW,286,0.0,1.0,81,0.00,,,0.00,VWS V14.01,2015-05-04 06:43:00,
2015-05-04 02:48:00,48.8,43.2,30.11,WNW,286,0.0,1.0,81,0.00,,,0.00,VWS V14.01,2015-05-04 06:48:00,
2015-05-04 02:53:00,48.3,43.1,30.11,WNW,286,1.0,2.0,82,0.00,,,0.00,VWS V14.01,2015-05-04 06:53:00,
2015-05-04 02:58:00,48.1,43.2,30.11,WNW,286,0.0,2.0,83,0.00,,,0.00,VWS V14.01,2015-05-04 06:58:00,
2015-05-04 03:03:00,48.0,43.1,30.11,WNW,286,0.0,2.0,83,0.00,,,0.00,VWS V14.01,2015-05-04 07:03:00,
2015-05-04 03:08:00,47.8,42.9,30.11,WNW,286,0.0,2.0,83,0.00,,,0.00,VWS V14.01,2015-05-04 07:08:00,
2015-05-04 03:13:00,47.7,42.8,30.11,WNW,286,0.0,2.0,83,0.00,,,0.00,VWS V14.01,2015-05-04 07:13:00,
2015-05-04 03:18:00,47.6,42.7,30.11,WNW,286,0.0,2.0,83,0.00,,,0.00,VWS V14.01,2015-05-04 07:18:00,
2015-05-04 03:23:00,47.5,42.9,30.11,WNW,286,0.0,2.0,84,0.00,,,0.00,VWS V14.01,2015-05-04 07:23:00,
2015-05-04 03:28:00,47.4,42.8,30.11,WNW,286,0.0,2.0,84,0.00,,,0.00,VWS V14.01,2015-05-04 07:28:00,
2015-05-04 03:33:00,46.9,42.3,30.12,WNW,286,0.0,2.0,84,0.00,,,0.00,VWS V14.01,2015-05-04 07:33:00,
2015-05-04 03:38:00,47.0,42.7,30.12,WNW,286,1.0,2.0,85,0.00,,,0.00,VWS V14.01,2015-05-04 07:38:00,
2015-05-04 03:43:00,47.1,42.8,30.12,WNW,286,0.0,2.0,85,0.00,,,0.00,VWS V14.01,2015-05-04 07:43:00,
2015-05-04 03:48:00,46.9,42.6,30.12,WNW,286,0.0,2.0,85,0.00,,,0.00,VWS V14.01,2015-05-04 07:48:00,
2015-05-04 03:53:00,46.9,42.6,30.12,WNW,286,0.0,2.0,85,0.00,,,0.00,VWS V14.01,2015-05-04 07:53:00,
2015-05-04 03:58:00,46.9,42.6,30.12,WNW,286,0.0,2.0,85,0.00,,,0.00,VWS V14.01,2015-05-04 07:58:00,
2015-05-04 04:03:00,46.7,42.4,30.12,WNW,286,0.0,0.0,85,0.00,,,0.00,VWS V14.01,2015-05-04 08:03:00,
2015-05-04 04:08:00,46.5,42.2,30.12,WNW,286,0.0,2.0,85,0.00,,,0.00,VWS V14.01,2015-05-04 08:08:00,
2015-05-04 04:13:00,46.1,41.8,30.12,WNW,286,1.0,2.0,85,0.00,,,0.00,VWS V14.01,2015-05-04 08:13:00,
2015-05-04 04:18:00,46.0,42.0,30.12,WNW,286,0.0,2.0,86,0.00,,,0.00,VWS V14.01,2015-05-04 08:18:00,
2015-05-04 04:23:00,45.9,42.0,30.12,WNW,286,0.0,2.0,86,0.00,,,0.00,VWS V14.01,2015-05-04 08:23:00,
2015-05-04 04:28:00,45.8,41.9,30.12,WNW,286,1.0,2.0,86,0.00,,,0.00,VWS V14.01,2015-05-04 08:28:00,
2015-05-04 04:33:00,45.8,41.9,30.12,WNW,286,0.0,0.0,86,0.00,,,0.00,VWS V14.01,2015-05-04 08:33:00,
2015-05-04 04:38:00,45.7,41.8,30.13,WNW,286,0.0,0.0,86,0.00,,,0.00,VWS V14.01,2015-05-04 08:38:00,
2015-05-04 04:43:00,45.7,42.1,30.13,WNW,286,1.0,2.0,87,0.00,,,0.00,VWS V14.01,2015-05-04 08:43:00,
2015-05-04 04:48:00,45.5,41.6,30.13,WNW,286,0.0,2.0,86,0.00,,,0.00,VWS V14.01,2015-05-04 08:48:00,
2015-05-04 04:53:00,45.3,41.4,30.13,WNW,286,0.0,2.0,86,0.00,,,0.00,VWS V14.01,2015-05-04 08:53:00,
2015-05-04 04:58:00,45.4,41.8,30.13,WNW,286,0.0,2.0,87,0.00,,,0.00,VWS V14.01,2015-05-04 08:58:00,
2015-05-04 05:03:00,45.4,41.8,30.13,WNW,286,0.0,0.0,87,0.00,,,0.00,VWS V14.01,2015-05-04 09:03:00,
2015-05-04 05:08:00,45.1,41.5,30.13,WNW,286,0.0,1.0,87,0.00,,,0.00,VWS V14.01,2015-05-04 09:08:00,
2015-05-04 05:13:00,45.1,41.5,30.13,WNW,286,1.0,1.0,87,0.00,,,0.00,VWS V14.01,2015-05-04 09:13:00,
2015-05-04 05:18:00,44.9,41.3,30.14,WNW,286,2.0,2.0,87,0.00,,,0.00,VWS V14.01,2015-05-04 09:18:00,
2015-05-04 05:23:00,44.6,41.0,30.14,WNW,286,1.0,2.0,87,0.00,,,0.00,VWS V14.01,2015-05-04 09:23:00,
2015-05-04 05:28:00,44.8,41.2,30.14,WNW,286,1.0,2.0,87,0.00,,,0.00,VWS V14.01,2015-05-04 09:28:00,
2015-05-04 05:33:00,45.0,41.4,30.14,WNW,286,0.0,0.0,87,0.00,,,0.00,VWS V14.01,2015-05-04 09:33:00,
2015-05-04 05:38:00,45.0,41.4,30.14,WNW,286,0.0,0.0,87,0.00,,,0.00,VWS V14.01,2015-05-04 09:38:00,
2015-05-04 05:43:00,44.7,41.1,30.14,WNW,286,0.0,0.0,87,0.00,,,0.00,VWS V14.01,2015-05-04 09:43:00,
2015-05-04 05:48:00,44.5,40.9,30.14,WNW,286,0.0,0.0,87,0.00,,,0.00,VWS V14.01,2015-05-04 09:48:00,
2015-05-04 05:53:00,44.4,40.8,30.14,WNW,286,0.0,0.0,87,0.00,,,0.00,VWS V14.01,2015-05-04 09:53:00,
2015-05-04 05:58:00,44.2,40.9,30.14,WNW,286,2.0,2.0,88,0.00,,,0.00,VWS V14.01,2015-05-04 09:58:00,
2015-05-04 06:03:00,44.0,40.7,30.15,WNW,286,2.0,2.0,88,0.00,,,0.00,VWS V14.01,2015-05-04 10:03:00,
2015-05-04 06:08:00,44.2,40.9,30.15,WNW,286,1.0,2.0,88,0.00,,,0.00,VWS V14.01,2015-05-04 10:08:00,
2015-05-04 06:13:00,44.5,41.2,30.15,WNW,286,0.0,2.0,88,0.00,,,0.00,VWS V14.01,2015-05-04 10:13:00,
2015-05-04 06:18:00,44.7,41.4,30.15,WNW,286,0.0,2.0,88,0.00,,,0.00,VWS V14.01,2015-05-04 10:18:00,
2015-05-04 06:23:00,44.7,41.4,30.15,WNW,286,1.0,2.0,88,0.00,,,0.00,VWS V14.01,2015-05-04 10:23:00,
2015-05-04 06:28:00,44.6,41.3,30.15,WNW,286,0.0,2.0,88,0.00,,,0.00,VWS V14.01,2015-05-04 10:28:00,
2015-05-04 06:33:00,44.7,41.4,30.15,WNW,286,0.0,0.0,88,0.00,,,0.00,VWS V14.01,2015-05-04 10:33:00,
2015-05-04 06:38:00,45.0,41.7,30.15,WNW,286,0.0,0.0,88,0.00,,,0.00,VWS V14.01,2015-05-04 10:38:00,
2015-05-04 06:43:00,45.3,42.0,30.15,WNW,286,1.0,2.0,88,0.00,,,0.00,VWS V14.01,2015-05-04 10:43:00,
2015-05-04 06:48:00,45.6,42.3,30.15,WNW,286,0.0,2.0,88,0.00,,,0.00,VWS V14.01,2015-05-04 10:48:00,
2015-05-04 06:53:00,46.0,42.7,30.16,WNW,286,1.0,2.0,88,0.00,,,0.00,VWS V14.01,2015-05-04 10:53:00,
2015-05-04 06:58:00,46.6,43.2,30.16,WNW,286,0.0,2.0,88,0.00,,,0.00,VWS V14.01,2015-05-04 10:58:00,
2015-05-04 07:03:00,47.2,43.8,30.16,WNW,286,0.0,1.0,88,0.00,,,0.00,VWS V14.01,2015-05-04 11:03:00,
2015-05-04 07:08:00,47.7,44.3,30.16,WNW,286,0.0,1.0,88,0.00,,,0.00,VWS V14.01,2015-05-04 11:08:00,
2015-05-04 07:12:00,48.3,44.9,30.16,WNW,286,0.0,1.0,88,0.00,,,0.00,VWS V14.01,2015-05-04 11:12:00,
2015-05-04 07:17:00,48.8,45.1,30.16,WNW,286,0.0,1.0,87,0.00,,,0.00,VWS V14.01,2015-05-04 11:17:00,
2015-05-04 07:22:00,49.4,45.4,30.16,WNW,286,0.0,1.0,86,0.00,,,0.00,VWS V14.01,2015-05-04 11:22:00,
2015-05-04 07:27:00,50.0,46.0,30.17,WNW,286,0.0,1.0,86,0.00,,,0.00,VWS V14.01,2015-05-04 11:27:00,
2015-05-04 07:32:00,50.7,46.4,30.17,WNW,286,0.0,0.0,85,0.00,,,0.00,VWS V14.01,2015-05-04 11:32:00,
2015-05-04 07:37:00,51.3,47.0,30.17,WNW,286,0.0,0.0,85,0.00,,,0.00,VWS V14.01,2015-05-04 11:37:00,
2015-05-04 07:42:00,52.0,47.3,30.17,WNW,286,0.0,0.0,84,0.00,,,0.00,VWS V14.01,2015-05-04 11:42:00,
2015-05-04 07:47:00,52.9,47.9,30.17,WNW,286,0.0,0.0,83,0.00,,,0.00,VWS V14.01,2015-05-04 11:47:00,
2015-05-04 07:52:00,54.0,48.0,30.17,WNW,286,0.0,0.0,80,0.00,,,0.00,VWS V14.01,2015-05-04 11:52:00,
2015-05-04 07:57:00,55.2,48.5,30.17,WNW,286,0.0,0.0,78,0.00,,,0.00,VWS V14.01,2015-05-04 11:57:00,
2015-05-04 08:02:00,56.3,48.8,30.17,WNW,286,0.0,2.0,76,0.00,,,0.00,VWS V14.01,2015-05-04 12:02:00,
2015-05-04 08:07:00,57.7,48.8,30.17,West,280,3.0,4.0,72,0.00,,,0.00,VWS V14.01,2015-05-04 12:07:00,
2015-05-04 08:12:00,58.8,48.3,30.17,West,279,0.0,4.0,68,0.00,,,0.00,VWS V14.01,2015-05-04 12:12:00,
2015-05-04 08:17:00,59.6,48.6,30.17,West,279,1.0,4.0,67,0.00,,,0.00,VWS V14.01,2015-05-04 12:17:00,
2015-05-04 08:22:00,60.5,48.7,30.17,West,279,0.0,4.0,65,0.00,,,0.00,VWS V14.01,2015-05-04 12:22:00,
2015-05-04 08:27:00,60.9,47.8,30.17,West,279,0.0,4.0,62,0.00,,,0.00,VWS V14.01,2015-05-04 12:27:00,
2015-05-04 08:32:00,61.1,47.6,30.17,West,279,0.0,4.0,61,0.00,,,0.00,VWS V14.01,2015-05-04 12:32:00,
2015-05-04 08:37:00,61.5,47.5,30.17,West,279,0.0,4.0,60,0.00,,,0.00,VWS V14.01,2015-05-04 12:37:00,
2015-05-04 08:42:00,62.2,48.6,30.17,West,279,1.0,4.0,61,0.00,,,0.00,VWS V14.01,2015-05-04 12:42:00,
2015-05-04 08:47:00,62.7,48.2,30.17,West,261,0.0,4.0,59,0.00,,,0.00,VWS V14.01,2015-05-04 12:47:00,
2015-05-04 08:52:00,63.4,48.4,30.17,West,261,0.0,4.0,58,0.00,,,0.00,VWS V14.01,2015-05-04 12:52:00,
2015-05-04 08:57:00,63.8,48.8,30.17,West,261,0.0,4.0,58,0.00,,,0.00,VWS V14.01,2015-05-04 12:57:00,
2015-05-04 09:02:00,63.9,47.9,30.17,West,261,0.0,2.0,56,0.00,,,0.00,VWS V14.01,2015-05-04 13:02:00,
2015-05-04 09:07:00,64.4,48.4,30.16,West,261,3.0,3.0,56,0.00,,,0.00,VWS V14.01,2015-05-04 13:07:00,
2015-05-04 09:12:00,65.5,48.9,30.16,SE,136,1.0,5.0,55,0.00,,,0.00,VWS V14.01,2015-05-04 13:12:00,
2015-05-04 09:17:00,66.2,49.1,30.16,SSE,148,1.0,5.0,54,0.00,,,0.00,VWS V14.01,2015-05-04 13:17:00,
2015-05-04 09:22:00,66.6,49.0,30.16,SSW,192,0.0,5.0,53,0.00,,,0.00,VWS V14.01,2015-05-04 13:22:00,
2015-05-04 09:27:00,67.1,49.4,30.16,SSW,195,2.0,5.0,53,0.00,,,0.00,VWS V14.01,2015-05-04 13:27:00,
2015-05-04 09:32:00,67.0,49.3,30.16,WSW,241,3.0,3.0,53,0.00,,,0.00,VWS V14.01,2015-05-04 13:32:00,
2015-05-04 09:37:00,66.8,49.1,30.16,WSW,254,0.0,4.0,53,0.00,,,0.00,VWS V14.01,2015-05-04 13:37:00,
2015-05-04 09:42:00,67.5,49.8,30.16,SW,215,1.0,5.0,53,0.00,,,0.00,VWS V14.01,2015-05-04 13:42:00,
2015-05-04 09:47:00,67.9,48.6,30.16,SSW,204,0.0,5.0,50,0.00,,,0.00,VWS V14.01,2015-05-04 13:47:00,
2015-05-04 09:52:00,68.5,50.2,30.16,SSE,161,0.0,5.0,52,0.00,,,0.00,VWS V14.01,2015-05-04 13:52:00,
2015-05-04 09:57:00,69.2,49.8,30.15,SW,220,5.0,5.0,50,0.00,,,0.00,VWS V14.01,2015-05-04 13:57:00,
2015-05-04 10:02:00,69.5,50.6,30.15,WSW,254,1.0,2.0,51,0.00,,,0.00,VWS V14.01,2015-05-04 14:02:00,
2015-05-04 10:07:00,69.9,49.9,30.15,South,186,1.0,4.0,49,0.00,,,0.00,VWS V14.01,2015-05-04 14:07:00,
2015-05-04 10:12:00,70.6,49.4,30.15,WSW,240,1.0,4.0,47,0.00,,,0.00,VWS V14.01,2015-05-04 14:12:00,
2015-05-04 10:17:00,71.1,49.3,30.15,South,169,2.0,4.0,46,0.00,,,0.00,VWS V14.01,2015-05-04 14:17:00,
2015-05-04 10:22:00,71.4,50.1,30.15,WSW,248,1.0,5.0,47,0.00,,,0.00,VWS V14.01,2015-05-04 14:22:00,
2015-05-04 10:27:00,71.5,50.2,30.15,SSW,194,0.0,5.0,47,0.00,,,0.00,VWS V14.01,2015-05-04 14:27:00,
2015-05-04 10:32:00,72.1,49.0,30.14,SSW,200,0.0,2.0,44,0.00,,,0.00,VWS V14.01,2015-05-04 14:32:00,
2015-05-04 10:37:00,72.4,49.9,30.15,SE,140,0.0,4.0,45,0.00,,,0.00,VWS V14.01,2015-05-04 14:37:00,
2015-05-04 10:42:00,73.0,49.2,30.15,South,175,0.0,4.0,43,0.00,,,0.00,VWS V14.01,2015-05-04 14:42:00,
2015-05-04 10:47:00,73.7,49.2,30.14,SSE,152,3.0,5.0,42,0.00,,,0.00,VWS V14.01,2015-05-04 14:47:00,
2015-05-04 10:52:00,73.8,48.7,30.15,SSW,209,0.0,5.0,41,0.00,,,0.00,VWS V14.01,2015-05-04 14:52:00,
2015-05-04 10:57:00,73.8,48.7,30.14,SSW,209,0.0,5.0,41,0.00,,,0.00,VWS V14.01,2015-05-04 14:57:00,
2015-05-04 11:02:00,74.4,49.2,30.14,SSW,213,1.0,6.0,41,0.00,,,0.00,VWS V14.01,2015-05-04 15:02:00,
2015-05-04 11:07:00,75.0,49.7,30.13,South,184,2.0,6.0,41,0.00,,,0.00,VWS V14.01,2015-05-04 15:07:00,
2015-05-04 11:12:00,75.5,48.8,30.13,SW,224,1.0,6.0,39,0.00,,,0.00,VWS V14.01,2015-05-04 15:12:00,
2015-05-04 11:17:00,75.5,48.1,30.13,SSE,148,4.0,6.0,38,0.00,,,0.00,VWS V14.01,2015-05-04 15:17:00,
2015-05-04 11:22:00,76.1,49.4,30.12,South,174,6.0,6.0,39,0.00,,,0.00,VWS V14.01,2015-05-04 15:22:00,
2015-05-04 11:27:00,76.6,49.8,30.12,South,182,0.0,6.0,39,0.00,,,0.00,VWS V14.01,2015-05-04 15:27:00,
2015-05-04 11:32:00,76.9,50.1,30.12,West,268,1.0,6.0,39,0.00,,,0.00,VWS V14.01,2015-05-04 15:32:00,
2015-05-04 11:37:00,76.7,49.9,30.12,West,269,1.0,6.0,39,0.00,,,0.00,VWS V14.01,2015-05-04 15:37:00,
2015-05-04 11:42:00,77.4,49.8,30.12,West,266,0.0,6.0,38,0.00,,,0.00,VWS V14.01,2015-05-04 15:42:00,
2015-05-04 11:47:00,78.0,48.9,30.11,South,171,2.0,6.0,36,0.00,,,0.00,VWS V14.01,2015-05-04 15:47:00,
2015-05-04 11:52:00,78.2,49.8,30.11,SE,128,0.0,7.0,37,0.00,,,0.00,VWS V14.01,2015-05-04 15:52:00,
2015-05-04 11:57:00,78.9,49.7,30.11,WSW,257,4.0,7.0,36,0.00,,,0.00,VWS V14.01,2015-05-04 15:57:00,
2015-05-04 12:02:00,79.1,49.1,30.11,South,175,2.0,5.0,35,0.00,,,0.00,VWS V14.01,2015-05-04 16:02:00,
2015-05-04 12:07:00,79.5,49.5,30.10,South,172,4.0,5.0,35,0.00,,,0.00,VWS V14.01,2015-05-04 16:07:00,
2015-05-04 12:12:00,80.0,49.1,30.10,WNW,283,2.0,5.0,34,0.00,,,0.00,VWS V14.01,2015-05-04 16:12:00,
2015-05-04 12:17:00,80.0,51.4,30.10,WSW,258,0.0,6.0,37,0.00,,,0.00,VWS V14.01,2015-05-04 16:17:00,
2015-05-04 12:22:00,80.1,48.4,30.09,WSW,257,0.0,6.0,33,0.00,,,0.00,VWS V14.01,2015-05-04 16:22:00,
2015-05-04 12:27:00,80.4,48.7,30.09,SSE,152,3.0,6.0,33,0.00,,,0.00,VWS V14.01,2015-05-04 16:27:00,
2015-05-04 12:32:00,80.7,48.1,30.09,SSE,154,2.0,4.0,32,0.00,,,0.00,VWS V14.01,2015-05-04 16:32:00,
2015-05-04 12:37:00,80.4,47.0,30.08,WNW,286,5.0,10.0,31,0.00,,,0.00,VWS V14.01,2015-05-04 16:37:00,
2015-05-04 12:42:00,80.4,47.0,30.08,South,184,0.0,10.0,31,0.00,,,0.00,VWS V14.01,2015-05-04 16:42:00,
2015-05-04 12:47:00,80.4,47.9,30.08,West,281,2.0,10.0,32,0.00,,,0.00,VWS V14.01,2015-05-04 16:47:00,
2015-05-04 12:52:00,80.9,46.6,30.08,SSW,192,0.0,10.0,30,0.00,,,0.00,VWS V14.01,2015-05-04 16:52:00,
2015-05-04 12:57:00,81.4,47.9,30.08,WSW,249,0.0,10.0,31,0.00,,,0.00,VWS V14.01,2015-05-04 16:57:00,
2015-05-04 13:02:00,81.2,46.8,30.07,SSE,161,0.0,4.0,30,0.00,,,0.00,VWS V14.01,2015-05-04 17:02:00,
2015-05-04 13:07:00,81.0,45.8,30.07,NNE,32,1.0,5.0,29,0.00,,,0.00,VWS V14.01,2015-05-04 17:07:00,
2015-05-04 13:12:00,80.7,46.4,30.07,South,188,1.0,5.0,30,0.00,,,0.00,VWS V14.01,2015-05-04 17:12:00,
2015-05-04 13:17:00,80.5,48.0,30.07,WNW,283,4.0,6.0,32,0.00,,,0.00,VWS V14.01,2015-05-04 17:17:00,
2015-05-04 13:22:00,80.3,46.1,30.07,WNW,285,2.0,6.0,30,0.00,,,0.00,VWS V14.01,2015-05-04 17:22:00,
2015-05-04 13:27:00,81.0,46.7,30.07,West,263,0.0,6.0,30,0.00,,,0.00,VWS V14.01,2015-05-04 17:27:00,
2015-05-04 13:32:00,81.4,47.0,30.06,NW,324,5.0,10.0,30,0.00,,,0.00,VWS V14.01,2015-05-04 17:32:00,
2015-05-04 13:37:00,81.7,44.5,30.06,WSW,248,7.0,10.0,27,0.00,,,0.00,VWS V14.01,2015-05-04 17:37:00,
2015-05-04 13:42:00,82.3,45.0,30.06,West,259,4.0,13.0,27,0.00,,,0.00,VWS V14.01,2015-05-04 17:42:00,
2015-05-04 13:47:00,81.6,41.3,30.06,NW,304,11.0,14.0,24,0.00,,,0.00,VWS V14.01,2015-05-04 17:47:00,
2015-05-04 13:52:00,81.2,42.1,30.05,WSW,257,7.0,14.0,25,0.00,,,0.00,VWS V14.01,2015-05-04 17:52:00,
2015-05-04 13:57:00,82.0,41.7,30.05,NW,304,8.0,16.0,24,0.00,,,0.00,VWS V14.01,2015-05-04 17:57:00,
2015-05-04 14:02:00,83.1,44.7,30.06,WNW,302,10.0,13.0,26,0.00,,,0.00,VWS V14.01,2015-05-04 18:02:00,
2015-05-04 14:07:00,83.1,46.7,30.05,WNW,296,12.0,15.0,28,0.00,,,0.00,VWS V14.01,2015-05-04 18:07:00,
2015-05-04 14:12:00,82.5,41.0,30.05,WNW,298,8.0,15.0,23,0.00,,,0.00,VWS V14.01,2015-05-04 18:12:00,
2015-05-04 14:17:00,82.0,42.8,30.05,WNW,298,11.0,15.0,25,0.00,,,0.00,VWS V14.01,2015-05-04 18:17:00,
2015-05-04 14:22:00,82.4,43.1,30.04,WSW,254,5.0,15.0,25,0.00,,,0.00,VWS V14.01,2015-05-04 18:22:00,
2015-05-04 14:27:00,82.7,41.2,30.04,West,261,12.0,15.0,23,0.00,,,0.00,VWS V14.01,2015-05-04 18:27:00,
2015-05-04 14:32:00,82.3,41.9,30.04,West,272,8.0,14.0,24,0.00,,,0.00,VWS V14.01,2015-05-04 18:32:00,
2015-05-04 14:37:00,83.1,44.7,30.03,WSW,257,3.0,14.0,26,0.00,,,0.00,VWS V14.01,2015-05-04 18:37:00,
2015-05-04 14:42:00,83.7,40.9,30.03,West,267,10.0,14.0,22,0.00,,,0.00,VWS V14.01,2015-05-04 18:42:00,
2015-05-04 14:47:00,83.8,40.9,30.03,WNW,299,8.0,16.0,22,0.00,,,0.00,VWS V14.01,2015-05-04 18:47:00,
2015-05-04 14:52:00,83.6,43.0,30.03,West,260,5.0,16.0,24,0.00,,,0.00,VWS V14.01,2015-05-04 18:52:00,
2015-05-04 14:57:00,83.9,43.3,30.03,WNW,284,4.0,16.0,24,0.00,,,0.00,VWS V14.01,2015-05-04 18:57:00,
2015-05-04 15:02:00,84.2,42.4,30.03,West,277,10.0,13.0,23,0.00,,,0.00,VWS V14.01,2015-05-04 19:02:00,
2015-05-04 15:07:00,82.9,41.3,30.02,West,265,7.0,14.0,23,0.00,,,0.00,VWS V14.01,2015-05-04 19:07:00,
2015-05-04 15:12:00,82.4,42.0,30.02,West,278,7.0,15.0,24,0.00,,,0.00,VWS V14.01,2015-05-04 19:12:00,
2015-05-04 15:17:00,82.6,42.2,30.02,WNW,298,9.0,15.0,24,0.00,,,0.00,VWS V14.01,2015-05-04 19:17:00,
2015-05-04 15:22:00,82.7,42.3,30.02,West,271,4.0,15.0,24,0.00,,,0.00,VWS V14.01,2015-05-04 19:22:00,
2015-05-04 15:27:00,82.4,42.0,30.02,West,272,7.0,15.0,24,0.00,,,0.00,VWS V14.01,2015-05-04 19:27:00,
2015-05-04 15:32:00,82.7,43.3,30.02,WNW,299,1.0,4.0,25,0.00,,,0.00,VWS V14.01,2015-05-04 19:32:00,
2015-05-04 15:37:00,82.8,41.3,30.02,WSW,251,3.0,7.0,23,0.00,,,0.00,VWS V14.01,2015-05-04 19:37:00,
2015-05-04 15:42:00,82.7,43.3,30.01,WNW,287,6.0,11.0,25,0.00,,,0.00,VWS V14.01,2015-05-04 19:42:00,
2015-05-04 15:47:00,83.7,45.2,30.01,NW,312,8.0,12.0,26,0.00,,,0.00,VWS V14.01,2015-05-04 19:47:00,
2015-05-04 15:52:00,83.9,43.3,30.01,WNW,301,7.0,22.0,24,0.00,,,0.00,VWS V14.01,2015-05-04 19:52:00,
2015-05-04 15:57:00,83.9,46.4,30.01,WNW,295,5.0,22.0,27,0.00,,,0.00,VWS V14.01,2015-05-04 19:57:00,
2015-05-04 16:02:00,83.4,43.9,30.01,WNW,283,4.0,8.0,25,0.00,,,0.00,VWS V14.01,2015-05-04 20:02:00,
2015-05-04 16:07:00,82.7,44.4,30.00,WNW,294,3.0,10.0,26,0.00,,,0.00,VWS V14.01,2015-05-04 20:07:00,
2015-05-04 16:12:00,83.0,45.6,30.00,West,277,5.0,10.0,27,0.00,,,0.00,VWS V14.01,2015-05-04 20:12:00,
2015-05-04 16:17:00,83.5,44.0,30.00,West,271,9.0,10.0,25,0.00,,,0.00,VWS V14.01,2015-05-04 20:17:00,
2015-05-04 16:22:00,83.4,45.0,30.00,NW,311,9.0,13.0,26,0.00,,,0.00,VWS V14.01,2015-05-04 20:22:00,
2015-05-04 16:27:00,82.4,44.1,30.00,NW,304,7.0,13.0,26,0.00,,,0.00,VWS V14.01,2015-05-04 20:27:00,
2015-05-04 16:32:00,82.9,44.5,30.00,West,280,7.0,10.0,26,0.00,,,0.00,VWS V14.01,2015-05-04 20:32:00,